DAL9286 KBWI-KSAN

Flight info

Callsign DAL9286
Flight time N/A
Altitude 40000
Route FOXHL1 OTTTO Q176 CIM J96 PKE LUCKI1
Aircraft A359/H-SDE2E3GHIJ3J4J5LM1ORWXY/LB1D1

Departure

Time 2026-04-29 18:56
Airport Baltimore/Washington International Thurgood Marshall Airport (KBWI)

Arrival

Time N/A
Airport San Diego International Airport (KSAN)
Time Latitude Longitude Altitude Speed Heading
2026-04-29 18:28 39.18176 -76.66401 165 ft 0 kts 179°
2026-04-29 18:42 39.18179 -76.66401 165 ft 2 kts 179°
2026-04-29 18:42 39.18201 -76.66401 165 ft 4 kts 171°
2026-04-29 18:42 39.18218 -76.66415 165 ft 4 kts 110°
2026-04-29 18:43 39.18222 -76.66446 166 ft 5 kts 68°
2026-04-29 18:43 39.18207 -76.66472 166 ft 6 kts 41°
2026-04-29 18:43 39.18193 -76.66489 166 ft 1 kts 53°
2026-04-29 18:43 39.18201 -76.66445 166 ft 5 kts 53°
2026-04-29 18:44 39.18219 -76.66409 166 ft 0 kts 53°
2026-04-29 18:44 39.18215 -76.66418 165 ft 2 kts 57°
2026-04-29 18:44 39.18206 -76.66435 165 ft 2 kts 57°
2026-04-29 18:44 39.18197 -76.66452 166 ft 3 kts 62°
2026-04-29 18:45 39.18193 -76.66463 166 ft 0 kts 52°
2026-04-29 18:48 39.18197 -76.66457 166 ft 2 kts 51°
2026-04-29 18:48 39.18219 -76.66427 165 ft 7 kts 45°
2026-04-29 18:49 39.18257 -76.66370 165 ft 9 kts 56°
2026-04-29 18:49 39.18263 -76.66299 165 ft 9 kts 92°
2026-04-29 18:49 39.18234 -76.66235 165 ft 9 kts 133°
2026-04-29 18:49 39.18181 -76.66171 164 ft 12 kts 142°
2026-04-29 18:50 39.18103 -76.66100 162 ft 15 kts 146°
2026-04-29 18:50 39.18004 -76.66040 161 ft 16 kts 180°
2026-04-29 18:50 39.17904 -76.66115 161 ft 17 kts 213°
2026-04-29 18:50 39.17801 -76.66202 162 ft 18 kts 213°
2026-04-29 18:51 39.17690 -76.66295 161 ft 20 kts 213°
2026-04-29 18:51 39.17567 -76.66398 160 ft 22 kts 213°
2026-04-29 18:51 39.17453 -76.66528 161 ft 20 kts 256°
2026-04-29 18:51 39.17456 -76.66688 165 ft 18 kts 275°
2026-04-29 18:52 39.17465 -76.66856 165 ft 20 kts 275°
2026-04-29 18:52 39.17495 -76.67030 167 ft 19 kts 298°
2026-04-29 18:52 39.17593 -76.67150 166 ft 21 kts 324°
2026-04-29 18:52 39.17721 -76.67269 164 ft 24 kts 324°
2026-04-29 18:53 39.17861 -76.67399 161 ft 26 kts 324°
2026-04-29 18:53 39.17967 -76.67497 164 ft 14 kts 324°
2026-04-29 18:53 39.18052 -76.67576 164 ft 16 kts 324°
2026-04-29 18:53 39.18144 -76.67661 167 ft 16 kts 324°
2026-04-29 18:54 39.18237 -76.67747 169 ft 17 kts 324°
2026-04-29 18:54 39.18343 -76.67844 168 ft 20 kts 324°
2026-04-29 18:54 39.18458 -76.67951 168 ft 21 kts 324°
2026-04-29 18:54 39.18567 -76.68082 166 ft 10 kts 284°
2026-04-29 18:55 39.18560 -76.68119 166 ft 8 kts 250°
2026-04-29 18:55 39.18511 -76.68163 166 ft 9 kts 180°
2026-04-29 18:55 39.18460 -76.68129 166 ft 9 kts 147°
2026-04-29 18:55 39.18258 -76.67943 169 ft 69 kts 144°
2026-04-29 18:56 39.17692 -76.67416 166 ft 130 kts 144°
2026-04-29 18:56 39.16844 -76.66615 404 ft 161 kts 143°
2026-04-29 18:56 39.15945 -76.65768 1284 ft 156 kts 145°
2026-04-29 18:56 39.14986 -76.65114 1936 ft 163 kts 164°
2026-04-29 18:57 39.13834 -76.65344 2422 ft 179 kts 210°
2026-04-29 18:57 39.13099 -76.66735 2701 ft 214 kts 252°
2026-04-29 18:57 39.13313 -76.68730 3129 ft 242 kts 294°
2026-04-29 18:57 39.14449 -76.70371 3908 ft 248 kts 315°
2026-04-29 18:58 39.15741 -76.71825 4816 ft 245 kts 313°
2026-04-29 18:58 39.16977 -76.73334 5609 ft 246 kts 310°
2026-04-29 18:58 39.18174 -76.74938 6352 ft 249 kts 306°
2026-04-29 18:58 39.19057 -76.76829 7043 ft 246 kts 283°
2026-04-29 18:59 39.19466 -76.79022 7518 ft 260 kts 275°
2026-04-29 18:59 39.19762 -76.81373 8135 ft 270 kts 274°
2026-04-29 18:59 39.20084 -76.83791 8937 ft 277 kts 276°
2026-04-29 18:59 39.20439 -76.86254 9765 ft 282 kts 276°
2026-04-29 19:00 39.20800 -76.88742 10558 ft 286 kts 276°
2026-04-29 19:00 39.21172 -76.91344 10962 ft 305 kts 276°
2026-04-29 19:00 39.21569 -76.94121 11288 ft 325 kts 276°
2026-04-29 19:00 39.21930 -76.97072 11648 ft 339 kts 271°
2026-04-29 19:01 39.22047 -77.00135 12277 ft 345 kts 268°
2026-04-29 19:01 39.22096 -77.03243 12986 ft 349 kts 268°
2026-04-29 19:01 39.22139 -77.06385 13705 ft 352 kts 268°
2026-04-29 19:01 39.22166 -77.09560 14340 ft 355 kts 266°
2026-04-29 19:02 39.21826 -77.12710 15043 ft 356 kts 253°
2026-04-29 19:02 39.21215 -77.14665 15612 ft 357 kts 242°
2026-04-29 19:02 39.19155 -77.18086 16816 ft 367 kts 229°